Home > Weather > Berkeley > Past weeks

Flag for U.S.A. Weather for the Past 2 Weeks in Berkeley, California, U.S.A.

Now
54 °F

Fog.


Feels Like: 54 °F
Forecast: 50 / 66 °F
Wind: No wind

Location: Metro Oakland International Airport

Current Time: Feb 12, 2016 at 11:26:56 PM

Latest Report: Feb 12, 2016 at 10:53 PM


Visibility: 8 mi

Pressure: 30.22 "Hg

Humidity: 90%

Dew point: 51 °F

Location of BerkeleyLocation

Historic Weather in Berkeley — Graph

°F

Berkeley Temperature Yesterday

Maximum temperature yesterday: 74 °F (at 2:53 PM)
Minimum temperature yesterday: 49 °F (at 5:53 AM)
Average temperature yesterday: 58 °F

High & Low Weather Summary for the Past Weeks

 TemperatureHumidityPressure
High79 °F (Feb 8, 1:53 PM)97% (Jan 29, 6:53 PM)30.47 "Hg (Jan 29, 6:53 PM)
Low41 °F (Feb 3, 4:53 AM)23% (Feb 8, 1:53 PM)29.76 "Hg (Jan 31, 2:53 PM)
Average54 °F70%30.21 "Hg
* Reported Jan 28 9:53 PM — Feb 12 9:53 PM, Berkeley, Weather by CustomWeather, © 2016

Note: Actual official high and low records may vary slightly from our data, if they occured in-between our weather recording intervals... More about our weather records

Advertising

Berkeley Weather History for the Previous 24 Hours

 ConditionsComfort  
Time TempWeatherWind HumidityBarometerVisibility
9:53 PM
Fri, Feb 12
56 °FFog.No wind87%30.21 "Hg10 mi
8:53 PM57 °FPassing clouds.No wind87%30.21 "Hg10 mi
7:53 PM59 °FPassing clouds.6 mph84%30.19 "Hg10 mi
6:53 PM60 °FPassing clouds.3 mph83%30.19 "Hg10 mi
5:53 PM61 °FPartly cloudy.6 mph81%30.19 "Hg10 mi
4:53 PM63 °FBroken clouds.7 mph75%30.18 "Hg10 mi
3:53 PM64 °FPartly sunny.9 mph73%30.17 "Hg10 mi
2:53 PM65 °FPartly sunny.10 mph68%30.18 "Hg10 mi
12:53 PM63 °FPartly sunny.7 mph63%30.20 "Hg10 mi
11:53 AM63 °FPartly sunny.8 mph60%30.23 "Hg10 mi
10:53 AM61 °FPartly sunny.6 mph72%30.24 "Hg10 mi
9:53 AM59 °FPartly sunny.5 mph78%30.24 "Hg10 mi
8:53 AM56 °FScattered clouds.6 mph90%30.24 "Hg10 mi
7:53 AM50 °FScattered clouds.No wind86%30.22 "Hg10 mi
6:53 AM48 °FFog.5 mph89%30.20 "Hg5 mi
5:53 AM49 °FClear.3 mph93%30.21 "Hg7 mi
4:53 AM50 °FClear.No wind86%30.19 "Hg8 mi
3:53 AM49 °FPassing clouds.3 mph90%30.19 "Hg10 mi
2:53 AM50 °FPassing clouds.No wind93%30.19 "Hg10 mi
1:53 AM53 °FPassing clouds.No wind86%30.20 "Hg8 mi
12:53 AM53 °FClear.No wind89%30.20 "Hg8 mi
11:53 PM
Thu, Feb 11
55 °FPassing clouds.No wind83%30.20 "Hg9 mi
Weather by CustomWeather, © 2016

See weather overviewHow to use our weather pages